Weather History for Holland, MI

Change the Weather History Date:

Sunday, March 24, 2013

  Actual Average Record
Temperature  
Mean Temperature 34 °F 40 °F  
Max Temperature 41 °F 48 °F 71 °F (1987)
Min Temperature 26 °F 31 °F -5 °F (1965)
Degree Days  
Heating Degree Days 31 25  
Month to date heating degree days 811 707  
Since 1 July heating degree days 5063 5207  
Cooling Degree Days 0 0  
Month to date cooling degree days 0 0  
Year to date cooling degree days 0 0  
Moisture  
Dew Point 22 °F    
Average Humidity 64    
Maximum Humidity 81    
Minimum Humidity 47    
Precipitation  
Precipitation 0.00 in 0.06 in 0.98 in (2004)
Month to date precipitation 0.97 1.79  
Year to date precipitation 6.73 5.68  
Sea Level Pressure  
Sea Level Pressure 29.88 in    
Wind  
Wind Speed 10 mph (NE)    
Max Wind Speed 21 mph    
Max Gust Speed 31 mph    
Visibility 10 miles    
Events      
T = Trace of Precipitation, MM = Missing Value Source: NWS Daily Summary

Daily Weather History Graph

Daily Weather History Graph

Search for Another Location

Airport:

Trip Planner

Search our weather history database for the weather conditions in past years. The results will help you decide how hot, cold, wet, or windy it might be!

Date:

Astronomy

Mar. 24, 2013 Rise Set
Actual Time 7:40 AM EDT 8:01 PM EDT
Civil Twilight 7:11 AM EDT 8:29 PM EDT
Nautical Twilight 6:38 AM EDT 9:03 PM EDT
Astronomical Twilight 6:04 AM EDT 9:37 PM EDT
Moon 5:26 PM EDT (3/24) 5:53 AM EDT (3/24)
Length of Visible Light 13h 18m
Length of Day
12h 21m
Waxing Gibbous, 91% of the Moon is Illuminated
Mar 24
Waxing Gibbous
Mar 27
Full
Apr 3
Last Quarter
Apr 10
New
Apr 18
First Quarter

Hourly Weather History & Observations

Time (EDT) Temp. Windchill Dew Point Humidity Pressure Visibility Wind Dir Wind Speed Gust Speed Precip Events Conditions
12:53 AM 28.0 °F - 21.0 °F 75% 30.06 in 10.0 mi Calm Calm - N/A   Clear
1:53 AM 27.0 °F - 21.0 °F 78% 30.06 in 10.0 mi Calm Calm - N/A   Clear
2:53 AM 26.1 °F - 21.0 °F 81% 30.07 in 10.0 mi Calm Calm - N/A   Clear
3:53 AM 28.9 °F 23.9 °F 21.9 °F 75% 30.05 in 10.0 mi NNE 4.6 mph - N/A   Clear
4:53 AM 30.0 °F 25.2 °F 21.9 °F 72% 30.02 in 10.0 mi NE 4.6 mph - N/A   Clear
5:53 AM 30.0 °F 25.2 °F 21.9 °F 72% 30.02 in 10.0 mi ENE 4.6 mph - N/A   Clear
6:53 AM 30.0 °F - 23.0 °F 75% 30.01 in 10.0 mi Calm Calm - N/A   Mostly Cloudy
7:53 AM 30.9 °F 23.5 °F 21.9 °F 69% 29.99 in 10.0 mi NE 8.1 mph - N/A   Mostly Cloudy
8:53 AM 30.9 °F 23.5 °F 21.9 °F 69% 29.98 in 10.0 mi NE 8.1 mph - N/A   Mostly Cloudy
9:53 AM 30.9 °F 22.8 °F 23.0 °F 72% 29.97 in 10.0 mi ENE 9.2 mph - N/A   Overcast
10:53 AM 32.0 °F 24.2 °F 23.0 °F 69% 29.93 in 10.0 mi ENE 9.2 mph - N/A   Overcast
11:53 AM 34.0 °F 25.5 °F 24.1 °F 67% 29.92 in 10.0 mi ENE 11.5 mph 17.3 mph N/A   Mostly Cloudy
12:53 PM 37.0 °F 28.1 °F 24.1 °F 59% 29.87 in 10.0 mi ENE 15.0 mph 24.2 mph N/A   Partly Cloudy
1:53 PM 37.9 °F 29.2 °F 23.0 °F 55% 29.86 in 10.0 mi ENE 15.0 mph 25.3 mph N/A   Mostly Cloudy
2:15 PM 39.2 °F 30.8 °F 23.0 °F 52% 29.82 in 10.0 mi ENE 15.0 mph 23.0 mph N/A   Mostly Cloudy
2:22 PM 39.2 °F 30.5 °F 23.0 °F 52% 29.82 in 10.0 mi ENE 16.1 mph 23.0 mph N/A   Mostly Cloudy
2:53 PM 39.0 °F 31.8 °F 23.0 °F 53% 29.82 in 10.0 mi ENE 11.5 mph 24.2 mph N/A   Overcast
3:53 PM 39.9 °F 31.8 °F 21.9 °F 49% 29.78 in 10.0 mi ENE 15.0 mph 25.3 mph N/A   Mostly Cloudy
4:53 PM 39.0 °F 29.9 °F 21.9 °F 50% 29.74 in 10.0 mi ENE 17.3 mph 27.6 mph N/A   Mostly Cloudy
5:53 PM 39.0 °F 29.6 °F 23.0 °F 53% 29.72 in 10.0 mi NE 18.4 mph 29.9 mph N/A   Mostly Cloudy
6:53 PM 37.0 °F 28.9 °F 21.9 °F 54% 29.72 in 10.0 mi NE 12.7 mph 23.0 mph N/A   Overcast
7:53 PM 36.0 °F 26.3 °F 21.0 °F 55% 29.73 in 10.0 mi ENE 16.1 mph 29.9 mph N/A   Overcast
8:53 PM 35.1 °F 25.9 °F 18.0 °F 50% 29.73 in 10.0 mi ENE 13.8 mph 24.2 mph N/A   Overcast
9:53 PM 34.0 °F 23.8 °F 19.0 °F 54% 29.73 in 10.0 mi NE 16.1 mph 27.6 mph N/A   Overcast
10:53 PM 33.1 °F 24.9 °F 19.9 °F 59% 29.75 in 10.0 mi NE 10.4 mph 18.4 mph N/A   Overcast
11:53 PM 33.1 °F 23.9 °F 19.9 °F 59% 29.75 in 10.0 mi NE 12.7 mph 18.4 mph N/A   Overcast